Temperature
20 18 19 19 19 20 20 20 19 20 20 20 19 19 19 19 18 18 18 18 18 19 19 19 18 18 18 18 17 17 17 17 16 16 16 16 15 15 15 15 14 14 14 14
19 19 20 20 20 20 20 19 19 20 20 20 19 19 19 18 18 18 18 18 18 18 18 18 18 18 18 17 17 17 17 16 16 16 16 15 15 15 15 14 14 14 14 14
20 20 21 21 21 20 20 19 19 20 20 20 19 19 18 18 18 18 18 18 18 18 18 18 18 18 18 17 17 17 17 16 16 16 15 15 15 15 15 14 14 14 14 14
20 20 21 21 21 20 19 20 20 20 19 18 19 18 18 17 17 17 17 18 18 18 18 18 18 18 18 17 17 17 16 16 16 16 15 15 15 15 14 14 14 14 14 13
20 21 21 21 21 21 20 20 20 20 18 18 18 18 17 17 17 17 17 17 18 18 18 18 18 18 17 17 17 16 16 16 16 15 15 15 14 14 14 14 14 14 13 13
21 21 21 21 22 21 21 19 18 16 16 18 18 17 17 16 17 17 17 18 18 18 18 18 18 18 17 17 16 16 16 16 15 15 15 14 14 14 14 14 14 13 13 13
21 21 21 22 21 21 20 18 18 18 17 17 18 17 17 18 18 18 17 17 18 18 18 18 17 17 17 17 16 16 16 15 15 15 14 14 14 14 14 14 13 13 13 13
20 20 21 22 21 20 19 19 18 18 17 17 17 17 17 18 18 18 18 18 17 18 18 18 17 17 17 17 16 16 15 15 15 15 14 14 14 14 13 13 13 13 13 13
19 20 21 22 22 20 19 18 18 16 17 17 17 17 18 18 17 16 17 17 17 17 17 17 17 17 16 16 16 16 15 15 15 14 14 14 14 14 13 13 13 13 13 13
19 20 21 21 21 20 19 17 15 16 17 17 18 18 17 18 17 16 15 16 16 17 17 17 17 16 16 16 16 15 15 15 15 14 14 14 14 13 13 13 13 13 13 13
19 19 20 21 21 20 19 18 16 15 16 17 17 17 17 17 16 15 15 16 16 16 16 16 16 16 16 16 15 15 15 14 14 14 14 14 14 14 13 13 13 13 13 13
18 17 18 19 20 20 20 18 16 17 17 15 16 16 17 16 15 15 15 16 16 16 16 16 16 16 15 15 15 15 15 14 14 14 14 14 13 13 13 13 13 13 13 13
18 17 18 19 19 19 19 18 17 15 14 14 16 17 16 15 15 15 15 15 15 16 16 16 15 15 15 15 15 14 14 14 14 14 14 13 13 13 13 13 13 13 13 12
17 16 17 18 18 18 19 18 17 16 15 15 16 17 16 15 14 14 15 15 15 15 15 15 15 15 15 15 14 14 14 14 14 14 13 13 13 13 13 13 13 13 12 12
17 17 17 18 19 19 19 18 17 17 16 16 16 16 16 15 14 14 15 15 15 15 15 15 15 15 14 14 14 14 14 14 13 13 13 13 13 13 13 13 12 12 12 12
15 17 17 18 19 18 18 18 18 17 17 16 16 16 15 14 15 14 14 14 14 14 14 15 14 14 14 14 14 14 14 13 13 13 13 13 13 13 13 13 12 12 12 12
14 15 16 17 18 19 18 17 17 17 17 16 16 16 14 14 14 14 14 14 14 14 14 15 15 14 14 14 14 14 13 13 13 13 13 13 13 13 13 12 12 12 12 12
14 14 13 15 18 18 17 17 17 17 16 15 15 14 14 14 14 15 15 15 15 15 14 15 14 14 14 14 14 13 13 13 13 13 12 12 13 12 12 12 12 12 12 12
13 14 13 14 16 16 17 17 16 16 16 15 14 14 13 14 14 14 15 15 15 15 15 14 14 14 14 14 14 13 13 13 13 12 12 12 12 12 12 12 12 12 12 12
13 13 13 14 16 16 16 17 17 16 16 14 14 13 13 14 13 13 15 15 15 15 14 14 14 14 14 14 13 13 13 13 13 12 12 12 12 12 12 12 12 12 12 11
14 13 13 13 15 15 15 16 17 16 15 15 14 14 13 13 14 15 15 15 15 14 14 14 14 14 14 14 13 13 13 13 12 12 12 12 12 12 12 12 12 11 11 11
13 13 13 13 14 15 15 15 15 14 15 15 15 15 14 15 15 15 15 15 14 14 14 14 14 13 13 13 13 13 13 13 12 12 12 12 12 12 12 12 11 11 11 11
12 12 12 13 13 13 14 15 16 16 15 16 16 15 15 15 15 14 14 14 14 14 14 13 13 13 13 13 13 13 12 12 12 12 12 12 12 11 11 11 11 11 11 11
12 11 11 12 13 13 14 15 16 16 16 16 16 16 15 15 15 14 14 14 14 14 13 13 13 13 13 13 12 12 12 12 12 12 12 11 11 11 11 11 11 11 11 11
12 11 11 12 12 13 14 15 16 16 16 16 16 16 15 15 14 14 14 14 14 13 13 13 13 13 13 13 12 12 12 12 12 12 11 11 11 11 11 11 11 11 11 10
10 11 11 12 12 12 13 15 15 15 16 16 15 15 15 15 14 14 14 14 14 13 13 13 13 13 13 12 12 12 12 12 12 11 11 11 11 11 11 11 11 11 10 10
Wind_Speed
3 3 4 8 7 5 3 2 4 6 4 2 5 6 5 3 4 5 5 5 5 5 3 2 2 2 2 2 2 2 2 2 2 1 1 1 0 0 1 1 1 2 2 2
4 4 8 4 4 3 2 2 4 5 3 2 3 4 4 4 5 5 6 6 6 4 3 2 2 2 2 2 3 3 2 2 2 2 2 1 1 1 1 1 1 1 2 2
7 6 2 3 3 3 3 5 5 5 3 2 1 4 3 2 1 1 3 5 6 7 6 4 3 2 2 2 3 2 2 2 2 1 1 1 1 1 1 1 1 1 2 2
5 5 2 3 4 5 5 6 5 3 1 2 1 3 5 2 2 3 4 5 5 5 5 4 3 3 3 3 1 1 1 1 1 1 2 2 1 1 1 1 1 1 1 1
5 4 4 4 5 6 5 1 1 1 3 1 2 2 6 1 3 6 6 5 5 5 5 4 4 3 2 1 1 1 1 0 0 1 2 2 1 1 1 0 1 1 1 1
5 3 4 5 2 4 3 5 5 5 5 1 3 3 6 4 6 5 5 5 4 4 4 3 2 2 1 1 1 1 1 0 0 1 1 2 2 2 1 1 1 1 1 1
3 3 3 3 2 2 4 5 3 4 3 4 2 2 7 6 6 6 6 6 4 4 4 4 3 2 2 1 1 1 1 1 1 1 1 2 2 2 2 2 2 1 1 2
3 6 4 4 6 5 4 7 6 4 4 4 2 4 6 4 3 2 3 4 3 3 4 4 4 3 2 2 2 1 1 1 1 1 1 1 2 1 1 2 2 2 2 2
6 6 4 3 3 7 5 4 6 6 2 1 4 6 6 1 3 2 3 3 3 3 3 2 2 2 2 2 2 2 2 2 2 1 1 1 1 1 1 1 1 1 1 1
7 4 4 1 4 3 5 8 6 5 4 3 4 4 4 4 3 1 1 2 2 1 1 1 1 2 2 2 1 1 1 2 2 2 2 1 1 1 1 0 1 1 1 1
5 4 3 1 3 5 4 4 5 4 5 5 3 6 4 5 4 4 3 2 2 2 2 2 2 2 1 1 1 1 0 1 1 1 1 0 0 0 0 1 1 1 0 0
4 5 2 5 4 3 4 6 7 5 3 4 4 6 3 2 3 3 3 2 2 2 1 1 1 1 1 1 1 1 0 1 1 0 1 1 1 1 1 0 0 0 0 0
5 5 2 5 5 2 2 3 3 6 5 4 4 5 3 3 2 1 2 2 2 2 2 2 2 1 0 0 1 0 0 1 0 1 1 1 2 2 1 1 0 0 0 1
5 4 6 8 6 4 2 1 3 5 4 4 6 5 4 2 0 0 2 3 3 2 2 2 1 1 1 1 0 0 1 0 0 1 2 1 1 1 1 1 1 0 0 1
5 4 4 4 4 3 2 3 3 4 6 7 6 5 5 4 4 3 3 3 3 2 2 2 1 0 1 1 1 1 0 0 1 2 2 1 1 1 1 1 1 1 1 1
3 3 2 1 1 2 0 2 3 2 3 3 2 3 3 1 2 3 3 4 3 2 2 2 1 0 0 0 0 1 0 1 2 2 1 0 1 1 1 1 1 1 1 2
1 4 3 2 2 2 2 2 3 2 1 4 5 5 1 1 4 5 5 4 4 3 2 2 2 2 2 1 1 1 1 1 2 1 1 1 0 0 1 1 1 2 2 2
5 4 3 1 2 3 5 2 3 3 1 1 1 2 4 3 3 3 4 4 3 2 2 1 1 2 2 1 1 2 1 2 1 1 1 1 1 1 2 1 2 2 2 2
4 6 4 3 2 3 3 1 2 3 1 0 2 1 2 3 4 2 1 2 3 3 2 2 2 2 1 1 1 2 1 1 1 0 1 2 1 1 1 2 3 2 2 2
6 4 5 4 3 4 5 3 1 4 1 2 3 3 3 4 2 3 2 1 1 1 1 1 0 1 1 1 2 2 1 1 1 2 3 2 2 1 2 2 2 2 1 2
3 3 4 4 3 4 4 3 2 3 5 3 4 5 5 4 4 3 2 1 1 1 1 1 2 1 1 1 2 2 1 3 3 3 2 2 2 2 2 2 2 2 2 2
3 3 3 4 3 5 3 2 4 5 2 3 4 4 4 3 1 2 3 2 2 1 1 1 1 0 1 1 2 2 3 4 2 1 2 2 2 2 2 1 2 2 1 2
2 3 4 5 5 3 2 2 2 3 3 3 4 3 4 3 2 2 2 3 2 2 1 0 1 0 1 1 2 3 4 2 1 1 2 2 2 2 1 2 2 2 1 1
2 1 2 0 3 3 2 2 1 1 3 3 3 4 4 3 3 3 3 3 2 1 0 0 1 1 2 2 2 3 3 1 0 1 2 2 2 2 2 2 2 2 2 2
3 1 1 1 3 3 4 3 2 1 1 2 2 3 4 5 4 3 3 3 3 1 1 1 2 2 3 3 3 3 2 1 1 1 2 2 1 2 2 2 2 2 3 3
3 4 4 4 5 3 4 3 1 1 1 3 3 3 2 4 4 3 3 3 3 2 2 1 2 3 3 3 3 3 2 2 2 1 2 2 1 1 2 2 3 3 3 4
Wind_Direction
85 92 212 218 205 201 185 209 264 272 266 212 240 255 267 227 204 203 200 191 192 200 205 178 172 166 145 146 160 182 172 164 137 137 150 141 185 235 247 236 195 181 176 175
55 254 237 209 187 178 182 237 268 288 290 197 247 275 268 225 212 204 196 191 192 192 170 166 156 144 154 182 192 195 188 184 180 183 181 173 170 184 211 234 244 201 191 192
192 239 212 171 181 174 223 208 231 244 320 21 39 319 298 288 249 173 189 188 187 188 182 180 176 165 167 203 206 191 202 202 199 180 122 88 62 53 32 336 291 257 209 188
222 247 197 199 213 177 252 236 214 220 156 295 59 278 289 272 273 233 217 201 198 189 178 179 184 189 203 216 202 192 208 217 225 172 155 155 164 196 229 239 260 293 258 215
230 203 183 214 227 180 219 246 161 159 143 31 3 192 285 302 256 246 228 212 203 190 177 180 190 196 198 191 171 188 171 219 238 180 175 165 195 230 241 286 291 300 297 262
243 229 199 208 222 164 142 63 54 52 75 360 251 189 277 245 233 232 222 215 198 183 171 169 167 149 142 116 127 143 141 268 294 189 179 177 192 207 200 262 276 298 309 302
301 287 245 172 114 47 99 93 30 359 7 257 268 209 254 260 241 215 209 207 193 178 169 167 174 173 167 146 187 172 152 218 245 196 206 199 194 190 207 216 226 247 281 290
208 279 239 190 180 183 178 146 161 201 227 275 312 246 263 280 286 205 168 161 155 169 182 185 192 194 185 184 193 187 187 225 233 219 245 230 198 194 220 215 210 220 240 259
187 250 277 213 169 146 144 168 163 136 146 268 281 287 304 353 25 68 119 129 160 184 195 196 197 191 186 191 204 202 202 225 235 234 233 235 230 212 225 232 201 214 240 256
167 226 287 294 79 55 140 141 106 122 155 244 282 275 261 262 245 214 179 181 194 184 208 224 204 188 200 203 189 127 198 232 234 226 225 223 233 235 237 218 224 220 246 290
149 169 299 37 180 186 113 105 111 119 150 162 245 269 242 224 207 197 208 198 185 190 210 220 212 201 179 133 123 123 224 269 258 241 230 183 223 207 147 224 238 216 267 326
155 138 233 262 269 192 158 162 147 152 207 177 184 264 308 203 184 179 189 183 163 163 187 177 147 126 106 99 70 82 221 229 241 200 84 59 37 62 58 18 284 168 61 332
138 120 83 340 344 4 115 150 146 127 125 159 177 257 343 50 83 120 149 158 137 114 94 76 66 49 14 73 23 342 337 261 231 115 86 60 44 57 38 333 346 22 4 346
123 124 168 199 217 208 213 186 154 136 155 196 217 241 298 326 290 203 170 166 146 139 127 108 78 26 359 6 5 307 309 237 98 96 93 72 46 48 14 345 339 345 3 341
109 157 196 216 217 179 207 221 188 184 185 184 220 221 249 245 216 191 166 150 136 136 141 152 153 24 24 24 3 358 345 88 111 104 93 83 61 51 38 19 346 342 354 327
86 153 161 281 239 162 277 281 210 202 178 179 176 247 260 251 133 131 147 149 160 175 186 189 183 149 59 1 334 16 56 107 111 118 124 63 59 43 15 342 332 338 333 331
117 133 130 244 293 57 292 250 181 173 166 158 200 233 183 157 170 174 176 174 181 192 197 207 207 211 229 231 184 178 191 115 114 140 171 153 128 320 302 312 331 309 300 312
144 126 134 143 74 212 248 282 151 140 106 143 192 216 187 196 195 168 165 169 183 193 204 228 227 230 240 224 179 158 125 114 119 152 213 210 172 291 307 319 302 291 287 289
146 137 123 123 158 270 298 313 141 143 286 16 161 139 115 91 62 15 250 178 187 195 200 219 220 213 189 200 188 139 125 121 122 244 267 255 224 253 297 301 293 289 291 299
75 98 112 122 150 224 253 292 244 110 284 260 162 160 156 115 119 252 242 169 137 112 151 185 159 80 147 206 143 126 154 175 244 253 258 258 239 228 257 275 281 287 279 283
71 76 115 141 186 252 272 295 102 145 244 225 176 176 169 178 200 215 165 144 149 143 172 149 125 120 215 176 131 147 199 244 254 264 272 277 261 246 252 268 279 296 307 324
158 143 156 141 172 250 314 111 165 217 225 170 173 178 176 184 168 150 146 148 140 120 97 127 124 288 286 164 149 183 246 260 279 285 294 296 283 273 284 285 295 307 317 330
176 187 185 179 203 253 271 216 244 183 185 200 181 182 163 159 174 165 159 161 166 168 180 134 140 311 319 209 174 216 257 272 307 328 317 314 319 319 294 264 273 300 311 302
312 84 113 252 280 291 305 325 336 217 208 201 171 163 160 165 170 162 162 168 170 185 199 117 137 251 285 272 244 239 262 268 175 289 297 301 318 324 323 305 266 260 263 268
240 136 115 262 291 338 342 332 316 356 91 112 114 138 146 141 154 163 169 183 187 198 214 191 204 237 259 260 259 261 247 181 206 263 278 295 298 305 319 319 295 270 258 239
210 180 176 222 228 197 255 280 308 119 135 137 116 95 117 148 166 171 180 193 193 192 196 212 241 249 265 262 265 274 252 200 199 252 269 269 276 284 290 301 329 323 285 280
Height
1485 1490 1494 1491 1490 1491 1493 1497 1499 1494 1487 1490 1491 1490 1486 1486 1486 1486 1486 1487 1488 1489 1491 1492 1494 1495 1495 1495 1495 1495 1495 1495 1495 1495 1495 1495 1495 1496 1496 1496 1496 1496 1496 1497
1490 1491 1484 1483 1486 1489 1493 1498 1498 1492 1486 1489 1491 1490 1485 1484 1483 1484 1484 1485 1486 1488 1490 1491 1492 1493 1494 1494 1494 1494 1493 1494 1494 1494 1494 1494 1494 1494 1495 1495 1495 1495 1495 1495
1488 1484 1479 1482 1485 1490 1492 1496 1494 1494 1489 1488 1492 1494 1488 1484 1483 1483 1484 1484 1486 1487 1488 1490 1491 1492 1492 1492 1492 1492 1492 1493 1492 1493 1493 1493 1493 1492 1493 1493 1493 1493 1493 1493
1484 1479 1479 1482 1484 1486 1494 1484 1487 1490 1497 1502 1497 1509 1493 1487 1485 1483 1483 1483 1484 1486 1487 1489 1490 1491 1491 1492 1492 1492 1492 1492 1492 1491 1491 1491 1491 1490 1491 1491 1491 1491 1491 1491
1481 1477 1478 1481 1480 1481 1484 1480 1484 1488 1496 1503 1501 1507 1499 1489 1487 1483 1481 1482 1482 1484 1486 1488 1489 1490 1490 1491 1491 1491 1491 1491 1490 1490 1490 1489 1489 1489 1489 1489 1490 1490 1490 1489
1476 1473 1474 1474 1473 1475 1478 1484 1489 1496 1502 1512 1503 1507 1502 1491 1484 1480 1479 1480 1481 1483 1485 1487 1488 1489 1489 1490 1490 1490 1490 1489 1489 1488 1488 1488 1488 1488 1488 1487 1488 1488 1488 1487
1479 1474 1471 1470 1476 1477 1481 1495 1510 1511 1518 1514 1500 1502 1498 1480 1477 1476 1476 1478 1480 1482 1484 1486 1487 1488 1488 1489 1489 1489 1488 1488 1487 1487 1486 1486 1486 1486 1486 1486 1486 1486 1486 1486
1487 1486 1471 1468 1472 1479 1482 1490 1509 1517 1520 1513 1501 1502 1489 1477 1475 1474 1475 1477 1479 1482 1483 1485 1486 1487 1487 1487 1487 1487 1487 1486 1486 1486 1485 1485 1485 1485 1485 1484 1485 1484 1484 1484
1486 1484 1467 1465 1465 1471 1482 1488 1489 1504 1509 1514 1507 1496 1483 1475 1475 1475 1476 1477 1479 1481 1483 1484 1485 1486 1486 1486 1486 1486 1486 1485 1485 1485 1484 1484 1484 1484 1483 1483 1483 1483 1483 1483
1473 1481 1469 1465 1466 1469 1473 1481 1495 1504 1514 1517 1506 1500 1494 1481 1478 1477 1477 1478 1479 1481 1482 1483 1484 1485 1485 1485 1485 1484 1484 1484 1484 1483 1483 1483 1483 1483 1483 1483 1482 1482 1482 1482
1469 1479 1475 1470 1471 1474 1478 1483 1491 1502 1504 1513 1514 1503 1479 1478 1477 1477 1477 1478 1479 1481 1482 1482 1483 1483 1483 1483 1483 1482 1482 1482 1482 1481 1482 1482 1482 1482 1482 1482 1482 1482 1482 1481
1468 1478 1483 1475 1467 1465 1469 1477 1486 1497 1502 1505 1508 1501 1475 1474 1475 1476 1477 1478 1479 1480 1481 1482 1482 1483 1483 1482 1482 1481 1481 1480 1480 1480 1481 1481 1481 1481 1481 1482 1482 1481 1481 1481
1466 1478 1489 1486 1480 1472 1472 1475 1479 1487 1497 1505 1506 1496 1475 1474 1475 1476 1477 1478 1479 1480 1481 1482 1482 1482 1482 1481 1481 1481 1480 1480 1480 1480 1481 1481 1481 1481 1482 1482 1482 1481 1481 1480
1460 1474 1483 1488 1483 1475 1474 1475 1477 1483 1495 1498 1493 1486 1478 1476 1476 1477 1477 1478 1480 1480 1480 1481 1481 1482 1481 1481 1480 1480 1480 1480 1480 1480 1481 1481 1481 1482 1482 1482 1482 1481 1480 1480
1460 1472 1472 1471 1468 1469 1470 1472 1474 1477 1481 1486 1483 1481 1477 1476 1475 1476 1477 1478 1480 1480 1481 1481 1482 1482 1481 1481 1481 1480 1480 1480 1480 1480 1480 1481 1482 1482 1482 1482 1481 1481 1480 1479
1463 1469 1470 1470 1466 1467 1471 1470 1471 1472 1474 1477 1477 1478 1473 1474 1475 1476 1477 1478 1479 1480 1481 1482 1482 1482 1481 1481 1481 1480 1480 1480 1480 1480 1481 1481 1482 1482 1482 1482 1481 1480 1479 1478
1466 1470 1476 1478 1469 1468 1477 1471 1470 1472 1471 1473 1477 1475 1473 1474 1474 1475 1476 1477 1478 1479 1480 1481 1481 1481 1481 1481 1481 1480 1480 1480 1480 1481 1481 1482 1482 1482 1482 1481 1481 1480 1479 1477
1466 1471 1478 1480 1475 1484 1477 1465 1465 1468 1470 1470 1471 1471 1471 1472 1473 1474 1475 1476 1477 1479 1479 1480 1481 1481 1481 1481 1481 1481 1481 1481 1481 1481 1481 1481 1481 1481 1481 1481 1480 1479 1478 1477
1461 1468 1478 1484 1484 1480 1471 1466 1466 1469 1471 1470 1471 1471 1472 1473 1474 1476 1476 1476 1477 1478 1479 1480 1480 1480 1481 1481 1481 1481 1481 1481 1481 1481 1481 1481 1480 1480 1480 1480 1479 1478 1477 1476
1462 1465 1475 1482 1484 1486 1474 1464 1463 1467 1474 1469 1469 1471 1472 1473 1477 1476 1475 1475 1476 1478 1478 1479 1479 1480 1480 1480 1481 1480 1480 1480 1480 1480 1480 1480 1479 1479 1479 1478 1478 1477 1476 1474
1469 1472 1477 1481 1483 1478 1468 1464 1464 1476 1475 1467 1467 1469 1470 1471 1472 1472 1473 1474 1476 1477 1478 1478 1479 1479 1479 1479 1480 1479 1479 1479 1479 1479 1479 1478 1478 1478 1477 1477 1476 1475 1474 1473
1471 1475 1478 1481 1483 1480 1465 1464 1468 1468 1464 1464 1465 1467 1468 1469 1470 1471 1472 1473 1475 1476 1477 1477 1478 1478 1479 1479 1479 1479 1479 1479 1479 1478 1478 1477 1477 1476 1476 1475 1475 1474 1472 1471
1469 1470 1471 1473 1474 1467 1464 1463 1463 1463 1463 1463 1464 1466 1467 1468 1469 1470 1471 1473 1474 1475 1476 1477 1477 1478 1478 1478 1478 1478 1478 1478 1477 1477 1476 1475 1475 1474 1474 1473 1473 1471 1470 1469
1467 1466 1468 1469 1466 1464 1463 1462 1462 1462 1462 1463 1464 1465 1466 1467 1468 1470 1471 1473 1473 1474 1475 1476 1476 1477 1477 1477 1477 1477 1477 1476 1476 1475 1474 1474 1473 1473 1472 1471 1471 1470 1468 1467
1466 1466 1468 1468 1465 1463 1461 1461 1461 1461 1462 1462 1463 1464 1465 1467 1468 1470 1471 1472 1473 1474 1475 1475 1475 1475 1476 1476 1475 1475 1475 1474 1474 1473 1472 1472 1471 1470 1470 1469 1469 1468 1467 1466
1464 1465 1467 1466 1463 1463 1462 1461 1461 1461 1461 1462 1462 1463 1465 1466 1468 1469 1470 1472 1472 1473 1474 1474 1474 1474 1474 1474 1474 1473 1473 1472 1472 1471 1470 1470 1469 1468 1468 1467 1466 1466 1465 1464